Retour au catalogue

STARLINK-35927

ActifCommunicationsVLEO
NORAD 66624·PAYLOAD·🇺🇸 United States

Lancé Nov 23, 2025 depuis Vandenberg Space Force Base

Loading…

Prochains Passages (prochaines 24 heures)

TLE

FraisSource: CelesTrak SupGP

Époque: Sep 14, 2026, 21:40 UTC

1 66624C 25271H   26257.90326389 -.00010687  00000+0 -31579-3 0  2571
2 66624  53.1590 339.5858 0001284  77.3917  40.2378 15.34392073    11

Suivez STARLINK-35927 en temps réel avec AllMySat

Download on the App Store